This is the latest recevied weather packets stored in our database for station/object K6HFP. If no packets are shown the sender has not sent any weather packets the latest 10 day(s).
| Time | Temp. | Humidity | Pressure | Rain* | Wind** | Luminosity | Snow |
|---|---|---|---|---|---|---|---|
| 1777670501 | 25° C | 49% | 1012.2 hPa | 0 mm | - | 933 W/m² | - |
| 1777670198 | 25° C | 50% | 1012.3 hPa | 0 mm | - | 878 W/m² | - |
| 1777669895 | 25° C | 47% | 1012.5 hPa | 0 mm | - | 767 W/m² | - |
| 1777669592 | 25° C | 48% | 1012.3 hPa | 0 mm | - | 800 W/m² | - |
| 1777669288 | 24.44° C | 51% | 1012.3 hPa | 0 mm | - | 936 W/m² | - |
| 1777668985 | 25° C | 51% | 1012.2 hPa | 0 mm | - | 933 W/m² | - |
| 1777668683 | 25° C | 46% | 1012.1 hPa | 0 mm | - | 928 W/m² | - |
| 1777668379 | 25° C | 48% | 1012.3 hPa | 0 mm | - | 927 W/m² | - |
| 1777668075 | 24.44° C | 49% | 1012.5 hPa | 0 mm | - | 868 W/m² | - |
| 1777667772 | 24.44° C | 47% | 1012.4 hPa | 0 mm | - | 905 W/m² | - |
| 1777667469 | 24.44° C | 49% | 1012.7 hPa | 0 mm | - | 843 W/m² | - |
| 1777667166 | 24.44° C | 49% | 1012.4 hPa | 0 mm | - | 845 W/m² | - |
| 1777666863 | 25° C | 48% | 1012.7 hPa | 0 mm | - | 956 W/m² | - |
| 1777666560 | 24.44° C | 49% | 1012.7 hPa | 0 mm | - | 977 W/m² | - |
| 1777666256 | 24.44° C | 48% | 1012.5 hPa | 0 mm | - | 861 W/m² | - |
| 1777665953 | 23.89° C | 52% | 1012.6 hPa | 0 mm | - | 955 W/m² | - |
| 1777665651 | 23.89° C | 52% | 1012.6 hPa | 0 mm | - | 652 W/m² | - |
| 1777665348 | 24.44° C | 48% | 1012.6 hPa | 0 mm | - | 903 W/m² | - |
| 1777665043 | 23.89° C | 53% | 1012.6 hPa | 0 mm | - | 892 W/m² | - |
| 1777664739 | 23.89° C | 50% | 1012.8 hPa | 0 mm | - | 934 W/m² | - |
| 1777664435 | 23.89° C | 53% | 1012.8 hPa | 0 mm | - | 917 W/m² | - |
| 1777664133 | 23.89° C | 49% | 1012.8 hPa | 0 mm | - | 965 W/m² | - |
| 1777663831 | 24.44° C | 49% | 1012.7 hPa | 0 mm | - | 971 W/m² | - |
| 1777663528 | 23.89° C | 51% | 1012.8 hPa | 0 mm | - | 888 W/m² | - |
| 1777663226 | 24.44° C | 51% | 1012.8 hPa | 0 mm | - | 979 W/m² | - |
* Rain latest hour (hover to see other rain measurements)
** Current wind speed in m/s (hover to see current wind gust speed)